DW9572 Weather Reports


time (UTC)temp
F
wind
direction
speed
knots
gust
knots
rain 1hr
in
rain 24hr
in
rain mn
in
humidity
%
barometer
mb
20260903090006 58 203 2.6 5.2 0.00 0.00 0.00 84 1007.9
20260903084506 58 208 3.5 5.2 0.00 0.00 0.00 85 1007.9
20260903083048 58 204 3.5 5.2 0.00 0.00 0.00 85 1007.8
20260903081547 58 228 1.7 3.5 0.00 0.00 0.00 84 1007.7
20260903080028 58 195 1.7 4.3 0.00 0.00 0.00 84 1007.6
20260903074528 58 173 1.7 5.2 0.00 0.00 0.00 85 1007.5
20260903073029 59 233 7.8 9.6 0.00 0.00 0.00 85 1007.2
20260903071508 59 232 9.6 13.0 0.00 0.00 0.00 85 1006.9
20260903070054 59 257 7.8 12.2 0.00 0.00 0.00 83 1006.8
20260903064550 60 231 8.7 13.0 0.00 0.00 0.00 81 1006.8
20260903063032 60 271 3.5 11.3 0.00 0.00 0.00 79 1007.0
20260903061549 61 258 7.0 16.5 0.00 0.00 0.00 78 1007.0
20260903060013 61 242 11.3 19.1 0.00 0.00 0.00 78 1006.5
20260903054517 60 239 9.6 15.6 0.00 0.00 0.00 81 1006.4
20260903053054 62 241 16.5 25.2 0.00 0.00 0.00 77 1006.3
20260903051553 62 257 19.1 24.3 0.00 0.00 0.00 75 1006.4
20260903050039 63 269 13.9 22.6 0.00 0.00 0.00 74 1006.7
20260903044545 63 262 15.6 21.7 0.00 0.00 0.00 74 1006.5
20260903043040 62 215 13.0 16.5 0.00 0.00 0.00 76 1006.6
20260903041546 62 211 13.9 20.0 0.00 0.00 0.00 76 1006.6
20260903040037 62 205 11.3 15.6 0.00 0.00 0.00 75 1006.8
20260903034536 63 211 5.2 8.7 0.00 0.00 0.00 74 1006.7
20260903033034 64 201 7.0 16.5 0.00 0.00 0.00 69 1006.7
20260903031534 64 191 7.0 17.4 0.00 0.00 0.00 69 1006.7
20260903030017 63 235 8.7 13.0 0.00 0.00 0.00 68 1006.5
20260903024517 64 222 12.2 21.7 0.00 0.00 0.00 66 1006.3
20260903023118 63 250 14.8 20.0 0.00 0.00 0.00 68 1006.2
20260903021559 62 256 10.4 14.8 0.00 0.00 0.00 71 1006.2
20260903020058 63 269 9.6 19.1 0.00 0.00 0.00 69 1006.3
20260903014606 65 271 10.4 17.4 0.00 0.00 0.00 62 1006.3
20260903013059 66 269 15.6 21.7 0.00 0.00 0.00 59 1006.3
20260903011611 66 264 16.5 24.3 0.00 0.00 0.00 58 1006.2
20260903010101 66 273 15.6 20.9 0.00 0.00 0.00 57 1006.0
20260903004544 66 267 19.1 31.3 0.00 0.00 0.00 55 1005.9
20260903003100 67 270 20.9 27.8 0.00 0.00 0.00 54 1005.8
20260903001553 66 263 19.1 25.2 0.00 0.00 0.00 56 1005.9
20260903000046 66 280 12.2 20.9 0.00 0.00 0.00 57 1006.1
20260902234523 68 256 17.4 24.3 0.00 0.00 0.00 49 1005.9
20260902233023 69 277 19.1 30.4 0.00 0.00 0.00 46 1005.9
20260902231504 70 268 19.1 31.3 0.00 0.00 0.00 45 1006.0
20260902230004 69 264 13.9 22.6 0.00 0.00 0.00 50 1006.1
20260902224547 69 264 10.4 20.0 0.00 0.00 0.00 51 1006.1
20260902223047 69 281 19.1 33.0 0.00 0.00 0.00 52 1005.7
20260902221532 74 253 30.4 44.3 0.00 0.00 0.00 42 1005.3
20260902220034 75 220 11.3 20.0 0.00 0.00 0.00 39 1004.7
20260902214521 75 200 13.9 22.6 0.00 0.00 0.00 38 1004.7
20260902213018 76 211 7.0 20.0 0.00 0.00 0.00 38 1004.8
20260902211515 77 180 8.7 19.1 0.00 0.00 0.00 36 1004.6
20260902210015 78 212 13.9 19.1 0.00 0.00 0.00 34 1004.6
20260902204512 79 191 14.8 22.6 0.00 0.00 0.00 34 1004.8
20260902203009 77 226 10.4 20.0 0.00 0.00 0.00 35 1004.9
20260902201506 76 216 11.3 15.6 0.00 0.00 0.00 36 1005.0
20260902200008 76 179 9.6 19.1 0.00 0.00 0.00 37 1005.4
20260902194551 75 195 11.3 17.4 0.00 0.00 0.00 39 1005.5
20260902193044 74 254 14.8 21.7 0.00 0.00 0.00 38 1005.8
20260902191521 74 225 11.3 18.2 0.00 0.00 0.00 41 1006.0
20260902190021 73 211 12.2 20.0 0.00 0.00 0.00 40 1006.2
20260902184501 73 240 13.0 20.0 0.00 0.00 0.00 42 1006.2
20260902183100 73 239 14.8 21.7 0.00 0.00 0.00 42 1006.4
20260902181541 72 208 13.9 19.1 0.00 0.00 0.00 42 1006.5
20260902180039 72 185 7.0 20.0 0.00 0.00 0.00 43 1006.6
20260902174520 72 252 15.6 20.0 0.00 0.00 0.00 44 1006.5
20260902173025 70 191 5.2 20.0 0.00 0.00 0.00 46 1006.7
20260902171600 69 193 10.4 17.4 0.00 0.00 0.00 49 1006.8
20260902170057 69 207 9.6 16.5 0.00 0.00 0.00 52 1006.9
20260902164536 68 200 10.4 14.8 0.00 0.00 0.00 52 1006.7
20260902163036 66 191 7.8 10.4 0.00 0.00 0.00 61 1007.0
20260902161512 62 207 1.7 5.2 0.00 0.00 0.00 66 1007.0
20260902160012 62 229 6.1 9.6 0.00 0.00 0.00 66 1007.1
20260902154559 60 193 2.6 7.0 0.00 0.00 0.00 68 1007.3
20260902153053 60 193 2.6 5.2 0.00 0.00 0.00 67 1007.3
20260902151539 61 246 3.5 6.1 0.00 0.00 0.00 66 1007.4
20260902150035 59 226 5.2 7.0 0.00 0.00 0.00 71 1007.5
20260902144515 58 269 1.7 5.2 0.00 0.00 0.00 71 1007.5
20260902143014 58 264 5.2 10.4 0.00 0.00 0.00 69 1007.1
20260902141551 59 273 7.8 12.2 0.00 0.00 0.00 65 1006.9
20260902140049 64 238 11.3 19.1 0.00 0.00 0.00 56 1006.7
20260902134535 62 285 13.0 19.1 0.00 0.00 0.00 58 1006.2
20260902133023 60 256 4.3 8.7 0.00 0.00 0.00 65 1006.4
20260902131503 61 333 4.3 7.8 0.00 0.00 0.00 61 1006.3
20260902130002 64 266 3.5 9.6 0.00 0.00 0.00 55 1006.5
20260902124551 62 278 10.4 28.7 0.00 0.00 0.00 59 1006.7
20260902123050 60 200 12.2 14.8 0.00 0.00 0.00 63 1006.6
20260902121548 60 193 8.7 13.9 0.00 0.00 0.00 63 1006.5
20260902120046 61 212 8.7 13.0 0.00 0.00 0.00 63 1006.3
20260902114546 61 202 10.4 14.8 0.00 0.00 0.00 62 1006.5
20260902113050 61 207 13.9 18.2 0.00 0.00 0.00 62 1006.2
20260902111540 62 197 10.4 13.0 0.00 0.00 0.00 60 1006.1
20260902110042 62 246 8.7 12.2 0.00 0.00 0.00 59 1005.8
20260902104541 63 218 5.2 7.8 0.00 0.00 0.00 57 1005.7
20260902103020 65 246 7.0 13.0 0.00 0.00 0.00 54 1005.4
20260902101502 66 282 8.7 13.9 0.00 0.00 0.00 52 1005.5
20260902100002 65 278 2.6 11.3 0.00 0.00 0.00 54 1005.7
20260902094544 63 269 7.8 13.9 0.00 0.00 0.00 58 1005.5
20260902093043 62 269 7.8 16.5 0.00 0.00 0.00 61 1005.5
20260902091524 62 269 13.0 17.4 0.00 0.00 0.00 62 1005.5